Regional Weather Roundup
Issued by NWS Midland/Odessa, TX

Home | Current Version | Previous Version | Text Only | Print | Product List | Glossary On
Versions: 1 2 3 4 5 6 7 8 9 10 11 12 13 14 15 16 17 18 19 20 21 22 23 24 25 26 27 28 29 30 31 32 33 34 35 36 37 38 39 40 41 42 43 44 45 46 47 48 49 50
000
ASUS44 KMAF 260310
RWRMAF
MIDLAND AREA WEATHER ROUNDUP
NATIONAL WEATHER SERVICE MIDLAND TX
1000 PM CDT SUN JUN 25 2017

...IN SOUTHWEST TEXAS AND SOUTHEAST NEW MEXICO...

CITY           SKY/WX    TMP DP  RH WIND       PRES   REMARKS
ALPINE         CLOUDY    77  56  49 SE10      30.27R
ANDREWS          N/A     80  60  51 SE14      30.17R
ARTESIA        CLOUDY    84  55  37 S7        30.14R
BIG SPRING     PTCLDY    79  62  55 E9        30.18R
CARLSBAD       CLOUDY    86  56  35 SE8       30.10R
DRYDEN           N/A     85  61  44 SE7       30.07S
FORT STOCKTON  CLEAR     84  60  44 SE13G21   30.12R
GUAD PASS      CLOUDY    78  54  43 E8        30.28R
HOBBS          CLOUDY    79  57  47 SE14      30.17R
MARFA          CLEAR     76  55  48 E13       30.24R
MIDLAND AIRPK  MOCLDY    83  60  46 SE16      30.16R
MIDLAND INTL   CLOUDY    83  60  45 SE21      30.15R
ODESSA         CLOUDY    83  60  45 SE18G26   30.15R
PECOS          CLOUDY    87  57  35 SE13      30.07R
PRESIDIO       FAIR      89  56  32 NE16G24   30.06S
SEMINOLE       PTCLDY    79  60  53 SE12      30.18R
SNYDER         CLEAR     78  63  60 E12       30.18R
WINK           MOCLDY    87  58  37 MISG      30.09R
$$
...OTHER STATIONS IN TEXAS...

CITY           SKY/WX    TMP DP  RH WIND       PRES   REMARKS
ABILENE        CLEAR     75  67  76 E6        30.16R
AMARILLO       CLOUDY    71  63  75 SE22      30.20S
AUSTIN         PTCLDY    79  73  82 SE6       30.09R
BROWNSVILLE    MOCLDY    80  76  87 E7        30.04S
CORPUS CHRISTI MOCLDY    83  74  74 SE8       30.05R
DALLAS FTW     PTCLDY    80  61  52 E8        30.14R
DEL RIO        MOCLDY    81  70  69 SE10      30.05R
EL PASO        MOCLDY    75  59  57 NE8       30.16S
HOUSTON INT    MOCLDY    75  73  93 NE8       30.11R
LUBBOCK        CLOUDY    78  61  55 SE18      30.18R
SAN ANGELO     CLEAR     80  64  58 E9        30.12R
SAN ANTONIO    PTCLDY    77  70  79 E9        30.09S
WACO           CLEAR     77  71  82 E6        30.12R
WICHITA FALLS  NOT AVBL
$$
...OTHER LOCATIONS IN NEW MEXICO...

CITY           SKY/WX    TMP DP  RH WIND       PRES   REMARKS
ALAMOGORDO     TSTM      72  57  60 NW7       30.26R
ALBUQUERQUE    CLOUDY    70  51  51 S7        30.25R
CANNON AFB     CLOUDY    75  64  69 NW26G36   30.24R
CLOVIS         CLOUDY    76  62  62 S14       30.17F
HOLLOMAN AFB   DRIZZLE   68  62  80 N13       30.27F
ROSWELL        CLOUDY    76  55  48 NW35G45   30.15R
RUIDOSO        LGT RAIN  55  55 100 S9        30.46F
SANTA FE       CLOUDY    69  49  48 SE9       30.30R
TRUTH OR CONSE CLOUDY    75  51  43 W12       30.16R
TUCUMCARI      LGT RAIN  73  56  54 N8G17     30.20S
$$




USA.gov is the U.S. government's official web portal to all federal, state and local government web resources and services.